Location: Newark
(54.8972°N, 99.8189°W)
Time: 10:08:41
(UTC+00:00)

Transit 2A - Pass Details

Date: 18 November 2019
Orbit: 602 x 957 km, 66.7° (Epoch: 12 December)

Event Time Altitude Azimuth Distance (km) Brightness Sun altitude
Rises 00:56:49 0° 312° (NW) 2,923 9.7 -20.2°
Reaches altitude 10° 00:59:30 10° 326° (NNW) 1,984 8.5 -20.5°
Enters shadow 01:02:51 24° 15° (NNE) 1,285 7.0 -21.0°
